User: anonymous
Location: Unspecified
(0.0000°N, 0.0000°E)
Time: 05:55:23
(UTC+02:00)
Language:

Gbstr 26 Del rocket - Orbit

View from above orbital plane
View from above orbital plane
View from above satellite
View from above satellite

Ground track
Ground track

The orbit data is extracted from the following two-line orbital elements,

1 25876U 99041E   14233.86660610  .00000029  00000-0  44553-4 0  4448
2 25876 051.7686 058.0832 0539697 267.9833 177.4678 14.02155272769939
Epoch (UTC): 21 August 2014 20:47:54
Eccentricity: 0.0539697
inclination: 51.7686°
perigee height: 494 km
apogee height: 1278 km
right ascension of ascending node: 58.0832°
argument of perigee: 267.9833°
revolutions per day: 14.02155272
mean anomaly at epoch: 177.4678°
orbit number at epoch: 76993

The dashed part of the orbit path shows where the satellite is in the earth's shadow,  

DLR